| time (UTC) | temp F | wind direction | speed MPH | gust MPH | rain 1hr in | rain 24hr in | rain mn in | humidity % | barometer mb |
| 20260903041556 | 84 | 115 | 0.0 | 4.0 | 0.00 | 0.00 | 0.00 | 54 | 1008.6 |
| 20260903040052 | 84 | 104 | 1.0 | 5.0 | 0.00 | 0.00 | 0.00 | 53 | 1008.7 |
| 20260903034545 | 84 | 97 | 3.0 | 8.0 | 0.00 | 0.00 | 0.00 | 53 | 1008.6 |
| 20260903033044 | 84 | 106 | 3.0 | 6.0 | 0.00 | 0.00 | 0.00 | 51 | 1008.5 |
| 20260903031543 | 84 | 96 | 2.0 | 4.0 | 0.00 | 0.00 | 0.00 | 51 | 1008.3 |
| 20260903030043 | 84 | 106 | 1.0 | 5.0 | 0.00 | 0.00 | 0.00 | 51 | 1008.1 |
| 20260903024542 | 84 | 102 | 0.0 | 3.0 | 0.00 | 0.00 | 0.00 | 52 | 1007.9 |
| 20260903023045 | 85 | 98 | 0.0 | 2.0 | 0.00 | 0.00 | 0.00 | 50 | 1007.8 |
| 20260903021541 | 85 | 104 | 0.0 | 4.0 | 0.00 | 0.00 | 0.00 | 49 | 1007.6 |
| 20260903020040 | 86 | 105 | 0.0 | 2.0 | 0.00 | 0.00 | 0.00 | 48 | 1007.5 |
| 20260903014540 | 86 | 123 | 0.0 | 2.0 | 0.00 | 0.00 | 0.00 | 49 | 1007.6 |
| 20260903013040 | 87 | 102 | 1.0 | 5.0 | 0.00 | 0.00 | 0.00 | 49 | 1007.3 |
| 20260903011539 | 88 | 115 | 0.0 | 5.0 | 0.00 | 0.00 | 0.00 | 47 | 1007.2 |
| 20260903010039 | 90 | 110 | 2.0 | 7.0 | 0.00 | 0.00 | 0.00 | 45 | 1007.1 |
| 20260903004547 | 91 | 119 | 4.0 | 9.0 | 0.00 | 0.00 | 0.00 | 43 | 1007.2 |
| 20260903003037 | 92 | 126 | 4.0 | 8.0 | 0.00 | 0.00 | 0.00 | 42 | 1007.2 |
| 20260903001536 | 93 | 110 | 1.0 | 6.0 | 0.00 | 0.00 | 0.00 | 41 | 1007.3 |
| 20260903000045 | 93 | 127 | 3.0 | 7.0 | 0.00 | 0.00 | 0.00 | 41 | 1007.2 |
| 20260902234535 | 93 | 104 | 2.0 | 8.0 | 0.00 | 0.00 | 0.00 | 40 | 1007.3 |
| 20260902233040 | 95 | 120 | 2.0 | 6.0 | 0.00 | 0.00 | 0.00 | 40 | 1007.2 |
| 20260902231540 | 93 | 115 | 3.0 | 9.0 | 0.00 | 0.00 | 0.00 | 42 | 1007.3 |
| 20260902230031 | 93 | 126 | 4.0 | 10.0 | 0.00 | 0.00 | 0.00 | 43 | 1007.7 |
| 20260902224530 | 93 | 115 | 1.0 | 8.0 | 0.00 | 0.00 | 0.00 | 44 | 1007.8 |
| 20260902223027 | 91 | 113 | 2.0 | 7.0 | 0.00 | 0.00 | 0.00 | 46 | 1007.9 |
| 20260902221526 | 89 | 120 | 0.0 | 5.0 | 0.00 | 0.00 | 0.00 | 47 | 1008.0 |
| 20260902220025 | 88 | 111 | 2.0 | 7.0 | 0.00 | 0.00 | 0.00 | 48 | 1008.2 |
| 20260902214625 | 90 | 109 | 2.0 | 6.0 | 0.00 | 0.00 | 0.00 | 47 | 1008.3 |
| 20260902213024 | 91 | 129 | 1.0 | 8.0 | 0.00 | 0.00 | 0.00 | 44 | 1008.2 |
| 20260902211527 | 91 | 131 | 4.0 | 9.0 | 0.00 | 0.00 | 0.00 | 44 | 1008.3 |
| 20260902210020 | 92 | 138 | 3.0 | 8.0 | 0.00 | 0.00 | 0.00 | 44 | 1008.5 |
| 20260902204519 | 92 | 135 | 1.0 | 6.0 | 0.00 | 0.00 | 0.00 | 41 | 1008.5 |
| 20260902203018 | 93 | 138 | 3.0 | 7.0 | 0.00 | 0.00 | 0.00 | 42 | 1008.7 |
| 20260902201521 | 96 | 145 | 1.0 | 8.0 | 0.00 | 0.00 | 0.00 | 39 | 1008.6 |
| 20260902200017 | 94 | 138 | 3.0 | 9.0 | 0.00 | 0.00 | 0.00 | 41 | 1008.7 |
| 20260902194512 | 94 | 122 | 4.0 | 7.0 | 0.00 | 0.00 | 0.00 | 42 | 1009.0 |
| 20260902193009 | 94 | 134 | 4.0 | 8.0 | 0.00 | 0.00 | 0.00 | 43 | 1009.3 |
| 20260902191507 | 94 | 139 | 1.0 | 8.0 | 0.00 | 0.00 | 0.00 | 43 | 1009.5 |
| 20260902190003 | 93 | 123 | 1.0 | 7.0 | 0.00 | 0.00 | 0.00 | 43 | 1010.0 |
| 20260902184601 | 93 | 122 | 1.0 | 6.0 | 0.00 | 0.00 | 0.00 | 44 | 1010.2 |
| 20260902183058 | 92 | 141 | 3.0 | 8.0 | 0.00 | 0.00 | 0.00 | 46 | 1010.3 |
| 20260902181554 | 92 | 134 | 1.0 | 5.0 | 0.00 | 0.00 | 0.00 | 46 | 1010.5 |
| 20260902180052 | 92 | 145 | 1.0 | 6.0 | 0.00 | 0.00 | 0.00 | 47 | 1010.8 |
| 20260902174554 | 91 | 136 | 2.0 | 6.0 | 0.00 | 0.00 | 0.00 | 48 | 1010.9 |
| 20260902173046 | 91 | 127 | 1.0 | 3.0 | 0.00 | 0.00 | 0.00 | 50 | 1010.9 |
| 20260902171546 | 90 | 131 | 0.0 | 3.0 | 0.00 | 0.00 | 0.00 | 49 | 1011.0 |
| 20260902170043 | 89 | 132 | 0.0 | 5.0 | 0.00 | 0.00 | 0.00 | 52 | 1011.1 |
| 20260902164547 | 89 | 134 | 0.0 | 4.0 | 0.00 | 0.00 | 0.00 | 51 | 1011.2 |
| 20260902163042 | 88 | 125 | 0.0 | 4.0 | 0.00 | 0.00 | 0.00 | 53 | 1011.2 |
| 20260902161539 | 89 | 110 | 1.0 | 6.0 | 0.00 | 0.00 | 0.00 | 52 | 1011.3 |
| 20260902160037 | 88 | 120 | 0.0 | 5.0 | 0.00 | 0.00 | 0.00 | 53 | 1011.2 |
| 20260902154535 | 87 | 103 | 0.0 | 5.0 | 0.00 | 0.00 | 0.00 | 54 | 1011.2 |
| 20260902153034 | 86 | 98 | 0.0 | 3.0 | 0.00 | 0.00 | 0.00 | 54 | 1011.3 |
| 20260902151529 | 85 | 102 | 0.0 | 3.0 | 0.00 | 0.00 | 0.00 | 56 | 1011.4 |
| 20260902150027 | 85 | 120 | 0.0 | 3.0 | 0.00 | 0.00 | 0.00 | 56 | 1011.4 |
| 20260902144528 | 83 | 103 | 0.0 | 4.0 | 0.00 | 0.00 | 0.00 | 58 | 1011.2 |
| 20260902143021 | 82 | 104 | 0.0 | 0.0 | 0.00 | 0.00 | 0.00 | 62 | 1011.3 |
| 20260902141525 | 80 | 126 | 0.0 | 0.0 | 0.00 | 0.00 | 0.00 | 67 | 1011.3 |
| 20260902140015 | 80 | 91 | 0.0 | 0.0 | 0.00 | 0.00 | 0.00 | 66 | 1011.2 |
| 20260902134513 | 78 | 91 | 0.0 | 0.0 | 0.00 | 0.00 | 0.00 | 71 | 1011.0 |
| 20260902133015 | 76 | 91 | 0.0 | 0.0 | 0.00 | 0.00 | 0.00 | 74 | 1010.8 |
| 20260902131510 | 74 | 179 | 0.0 | 0.0 | 0.00 | 0.00 | 0.00 | 76 | 1010.7 |
| 20260902130021 | 74 | 179 | 0.0 | 0.0 | 0.00 | 0.00 | 0.00 | 76 | 1010.7 |
| 20260902124509 | 74 | 179 | 0.0 | 0.0 | 0.00 | 0.00 | 0.00 | 75 | 1010.7 |
| 20260902123009 | 74 | 92 | 0.0 | 0.0 | 0.00 | 0.00 | 0.00 | 75 | 1010.5 |
| 20260902121507 | 75 | 103 | 0.0 | 0.0 | 0.00 | 0.00 | 0.00 | 72 | 1010.5 |
| 20260902120006 | 75 | 103 | 0.0 | 0.0 | 0.00 | 0.00 | 0.00 | 71 | 1010.5 |
| 20260902114508 | 75 | 104 | 0.0 | 0.0 | 0.00 | 0.00 | 0.00 | 71 | 1010.5 |
| 20260902113005 | 75 | 103 | 0.0 | 0.0 | 0.00 | 0.00 | 0.00 | 72 | 1010.5 |
| 20260902111504 | 75 | 104 | 0.0 | 0.0 | 0.00 | 0.00 | 0.00 | 71 | 1010.5 |
| 20260902110008 | 76 | 102 | 0.0 | 0.0 | 0.00 | 0.00 | 0.00 | 71 | 1010.5 |
| 20260902104504 | 75 | 105 | 1.0 | 3.0 | 0.00 | 0.00 | 0.00 | 73 | 1010.6 |
| 20260902103003 | 75 | 101 | 0.0 | 0.0 | 0.00 | 0.00 | 0.00 | 74 | 1010.6 |
| 20260902101501 | 75 | 101 | 0.0 | 0.0 | 0.00 | 0.00 | 0.00 | 75 | 1010.7 |
| 20260902094559 | 76 | 101 | 0.0 | 0.0 | 0.00 | 0.00 | 0.00 | 72 | 1010.7 |
| 20260902093054 | 76 | 101 | 0.0 | 1.0 | 0.00 | 0.00 | 0.00 | 71 | 1010.5 |
| 20260902091604 | 76 | 108 | 0.0 | 5.0 | 0.00 | 0.00 | 0.00 | 70 | 1010.5 |
| 20260902090056 | 77 | 117 | 1.0 | 6.0 | 0.00 | 0.00 | 0.00 | 69 | 1010.4 |
| 20260902084554 | 77 | 122 | 1.0 | 4.0 | 0.00 | 0.00 | 0.00 | 69 | 1010.4 |
| 20260902083110 | 77 | 101 | 0.0 | 0.0 | 0.00 | 0.00 | 0.00 | 68 | 1010.4 |
| 20260902081550 | 77 | 101 | 0.0 | 0.0 | 0.00 | 0.00 | 0.00 | 68 | 1010.4 |
| 20260902080046 | 78 | 165 | 0.0 | 0.0 | 0.00 | 0.00 | 0.00 | 67 | 1010.3 |
| 20260902074544 | 78 | 165 | 0.0 | 0.0 | 0.00 | 0.00 | 0.00 | 66 | 1010.3 |
| 20260902073041 | 79 | 167 | 0.0 | 2.0 | 0.00 | 0.00 | 0.00 | 65 | 1010.3 |
| 20260902071537 | 79 | 103 | 1.0 | 6.0 | 0.00 | 0.00 | 0.00 | 64 | 1010.2 |
| 20260902070040 | 80 | 105 | 2.0 | 6.0 | 0.00 | 0.00 | 0.00 | 63 | 1010.1 |
| 20260902064540 | 80 | 106 | 2.0 | 5.0 | 0.00 | 0.00 | 0.00 | 62 | 1010.1 |
| 20260902063037 | 80 | 105 | 1.0 | 6.0 | 0.00 | 0.00 | 0.00 | 60 | 1010.1 |
| 20260902061544 | 80 | 109 | 1.0 | 4.0 | 0.00 | 0.00 | 0.00 | 60 | 1010.2 |
| 20260902060033 | 81 | 106 | 2.0 | 5.0 | 0.00 | 0.00 | 0.00 | 60 | 1010.2 |
| 20260902054537 | 81 | 98 | 2.0 | 4.0 | 0.00 | 0.00 | 0.00 | 60 | 1010.3 |
| 20260902053033 | 81 | 107 | 0.0 | 0.0 | 0.00 | 0.00 | 0.00 | 61 | 1010.3 |
| 20260902051534 | 82 | 104 | 1.0 | 3.0 | 0.00 | 0.00 | 0.00 | 60 | 1010.4 |
| 20260902050032 | 82 | 105 | 0.0 | 3.0 | 0.00 | 0.00 | 0.00 | 59 | 1010.5 |
| 20260902044533 | 82 | 110 | 0.0 | 0.0 | 0.00 | 0.00 | 0.00 | 56 | 1010.4 |
| 20260902043040 | 84 | 127 | 0.0 | 1.0 | 0.00 | 0.00 | 0.00 | 54 | 1010.3 |